Location: Medlow Airstrip Trail, Medlow Bath NSW 2780, Australia
(33.6682°S, 150.3233°E)
Time: 22:47:33
(UTC+11:00)

Explorer 11/Cluster Stage 4 - Pass Details

Date: 02 October 2019
Orbit: 467 x 1259 km, 28.8° (Epoch: 18 October)

Event Time Altitude Azimuth Distance (km) Brightness Sun altitude
Rises 04:13:30 0° 319° (NW) 2,607 - -17.6°
Reaches altitude 10° 04:16:30 10° 343° (NNW) 1,655 - -17.0°
Exits shadow 04:17:10 12° 352° (N) 1,505 7.8 -16.9°
Maximum altitude 04:18:43 15° 20° (NNE) 1,341 7.8 -16.6°
Drops below altitude 10° 04:20:53 10° 57° (ENE) 1,619 8.8 -16.1°
Sets 04:23:46 0° 81° (E) 2,517 10.5 -15.5°
